This is the latest recevied weather packets stored in our database for station/object G6UYG-13. If no packets are shown the sender has not sent any weather packets the latest 10 day(s).
| Time | Temp. | Humidity | Pressure | Rain* | Wind** | Luminosity | Snow |
|---|---|---|---|---|---|---|---|
| 1777721570 | 16.67° C | 61% | 1013.8 hPa | 0 mm | - | 292 W/m² | - |
| 1777721150 | 16.67° C | 61% | 1013.8 hPa | 0 mm | - | 258 W/m² | - |
| 1777720730 | 16.67° C | 61% | 1014 hPa | 0 mm | - | 846 W/m² | - |
| 1777720310 | 16.67° C | 61% | 1014.2 hPa | 0 mm | - | 714 W/m² | - |
| 1777719890 | 16.67° C | 61% | 1014.3 hPa | 0 mm | - | 374 W/m² | - |
| 1777719470 | 16.67° C | 64% | 1014.4 hPa | 0 mm | - | 584 W/m² | - |
| 1777719050 | 16.67° C | 64% | 1014.4 hPa | 0 mm | - | 413 W/m² | - |
| 1777718630 | 16.11° C | 64% | 1014.4 hPa | 0 mm | - | 480 W/m² | - |
| 1777718210 | 16.11° C | 65% | 1014.2 hPa | 0 mm | - | 531 W/m² | - |
| 1777717790 | 15.56° C | 67% | 1014.2 hPa | 0 mm | - | 1002 W/m² | - |
| 1777717370 | 15° C | 66% | 1014.3 hPa | 0 mm | - | 798 W/m² | - |
| 1777716950 | 15° C | 67% | 1014.5 hPa | 0 mm | - | 338 W/m² | - |
| 1777716530 | 15° C | 68% | 1014.5 hPa | 0 mm | - | 420 W/m² | - |
| 1777716110 | 15° C | 67% | 1014.5 hPa | 0 mm | - | 422 W/m² | - |
| 1777715690 | 14.44° C | 70% | 1014.3 hPa | 0 mm | - | 302 W/m² | - |
| 1777715270 | 14.44° C | 70% | 1014.4 hPa | 0 mm | - | 708 W/m² | - |
| 1777714850 | 14.44° C | 70% | 1014.7 hPa | 0 mm | - | 288 W/m² | - |
| 1777714430 | 14.44° C | 70% | 1014.9 hPa | 0 mm | - | 374 W/m² | - |
| 1777714010 | 14.44° C | 69% | 1015 hPa | 0 mm | - | 390 W/m² | - |
| 1777713590 | 14.44° C | 73% | 1014.9 hPa | 0 mm | - | 413 W/m² | - |
| 1777713170 | 13.89° C | 73% | 1015 hPa | 0 mm | - | 411 W/m² | - |
| 1777712750 | 13.89° C | 76% | 1015.1 hPa | 0 mm | - | 770 W/m² | - |
| 1777712330 | 12.78° C | 77% | 1015.3 hPa | 0 mm | - | 626 W/m² | - |
| 1777711910 | 12.78° C | 79% | 1015.4 hPa | 0 mm | - | 471 W/m² | - |
| 1777711490 | 12.78° C | 79% | 1015.5 hPa | 0 mm | - | 353 W/m² | - |
* Rain latest hour (hover to see other rain measurements)
** Current wind speed in m/s (hover to see current wind gust speed)